SP9MLI-1 Weather Reports


time (UTC)temp
F
wind
direction
speed
knots
gust
knots
rain 1hr
in
rain 24hr
in
rain mn
in
humidity
%
barometer
mb
20260508022312 43 168 0.0 0.0 0.00 0.00 0.00 94 1017.0
20260508020813 43 164 0.0 0.0 0.00 0.00 0.00 94 1017.0
20260508015314 43 151 0.0 0.0 0.00 0.00 0.00 94 1017.4
20260508013812 43 184 0.0 0.0 0.00 0.00 0.00 94 1017.4
20260508012314 43 162 0.0 0.0 0.00 0.00 0.00 94 1017.4
20260508010812 43 170 0.0 0.0 0.00 0.00 0.00 95 1017.0
20260508005313 43 175 0.0 0.0 0.00 0.00 0.00 95 1017.4
20260508003812 43 164 0.0 0.0 0.00 0.00 0.00 94 1017.0
20260508002313 43 167 0.0 0.0 0.00 0.00 0.00 95 1017.0
20260508000812 43 165 0.0 0.0 0.00 0.00 0.00 94 1017.0
20260507235313 43 169 0.0 0.0 0.00 0.00 0.00 94 1017.0
20260507233812 43 167 0.0 0.0 0.00 0.00 0.00 93 1016.7
20260507232313 43 353 0.0 0.0 0.00 0.00 0.00 94 1016.7
20260507230812 43 353 0.0 0.0 0.00 0.00 0.00 94 1016.7
20260507225313 43 353 0.0 0.0 0.00 0.00 0.00 94 1016.7
20260507223812 43 353 0.0 0.0 0.00 0.00 0.00 94 1016.7
20260507222313 43 353 0.0 0.0 0.00 0.00 0.00 94 1016.7
20260507220812 43 174 0.0 0.0 0.00 0.00 0.00 94 1017.0
20260507215312 43 169 0.0 0.0 0.00 0.01 0.00 95 1017.0
20260507213812 43 9 0.0 0.0 0.00 0.01 0.00 95 1017.0
20260507212313 43 169 0.0 0.0 0.00 0.01 0.00 95 1017.0
20260507210813 43 164 0.0 0.0 0.00 0.01 0.00 95 1016.7
20260507205312 43 8 0.0 0.0 0.00 0.01 0.00 95 1016.4
20260507203813 43 9 0.0 0.0 0.00 0.01 0.00 94 1016.4
20260507202312 43 168 0.0 0.0 0.00 0.01 0.00 94 1016.0
20260507200812 43 165 0.0 0.0 0.00 0.01 0.00 93 1016.0
20260507193812 45 161 0.0 0.0 0.00 0.01 0.00 89 1015.7
20260507192312 45 161 0.0 0.0 0.00 0.01 0.00 89 1015.7
20260507190812 45 161 0.0 0.0 0.00 0.01 0.00 89 1015.7
20260507185313 45 161 0.0 0.0 0.00 0.01 0.00 89 1015.7
20260507183812 45 178 0.0 0.0 0.00 0.01 0.00 88 1015.4
20260507182407 46 166 0.0 0.0 0.00 0.01 0.00 86 1015.7
20260507182312 46 166 0.0 0.0 0.00 0.01 0.00 86 1015.7
20260507180812 47 166 0.0 0.0 0.00 0.01 0.00 83 1015.7
20260507175312 47 159 0.0 2.6 0.00 0.01 0.00 82 1015.7
20260507173811 47 190 0.0 0.0 0.00 0.01 0.00 82 1015.7
20260507172312 48 159 0.0 2.6 0.00 0.01 0.00 82 1015.4
20260507170811 47 157 0.0 0.0 0.00 0.01 0.00 81 1016.0
20260507165312 47 155 0.9 2.6 0.00 0.01 0.00 81 1015.4
20260507163811 48 150 0.0 0.0 0.00 0.01 0.00 81 1015.7
20260507162312 48 162 0.0 0.0 0.00 0.01 0.00 81 1015.7
20260507160811 48 169 1.7 4.3 0.00 0.01 0.00 80 1015.7
20260507155312 48 212 0.0 0.0 0.00 0.01 0.00 83 1015.4
20260507153811 47 169 0.0 0.0 0.00 0.01 0.00 84 1015.4
20260507152312 47 159 0.0 2.6 0.00 0.01 0.00 85 1015.4
20260507150811 48 151 0.0 2.6 0.00 0.01 0.00 84 1015.0
20260507145312 48 151 0.0 2.6 0.00 0.01 0.00 84 1015.0
20260507143811 48 151 0.0 2.6 0.00 0.01 0.00 84 1015.0
20260507142311 48 151 0.0 2.6 0.00 0.01 0.00 84 1015.0
20260507140813 49 107 3.5 4.3 0.00 0.01 0.00 84 1015.4
20260507135313 50 168 0.0 2.6 0.00 0.01 0.00 84 1015.4
20260507133813 50 177 0.9 2.6 0.00 0.01 0.00 83 1015.4
20260507132313 49 145 1.7 2.6 0.00 0.01 0.00 82 1015.4
20260507130813 49 103 0.9 2.6 0.00 0.01 0.00 85 1015.4
20260507125313 49 133 2.6 4.3 0.00 0.01 0.00 85 1015.4
20260507123812 49 182 1.7 4.3 0.00 0.01 0.00 86 1015.0
20260507122313 50 171 0.9 2.6 0.00 0.01 0.00 84 1015.4
20260507120813 50 185 1.7 2.6 0.00 0.01 0.00 83 1015.4
20260507115313 51 135 3.5 4.3 0.00 0.01 0.00 84 1015.4
20260507113813 53 159 1.7 4.3 0.00 0.01 0.00 83 1015.4
20260507112313 53 172 2.6 2.6 0.00 0.01 0.00 80 1015.4
20260507110812 52 149 0.9 2.6 0.00 0.01 0.00 80 1015.0
20260507105313 53 136 2.6 4.3 0.00 0.01 0.00 81 1015.4
20260507103813 52 153 1.7 4.3 0.00 0.01 0.00 79 1015.0
20260507100812 50 158 2.6 4.3 0.00 0.01 0.00 89 1013.3
20260507095313 50 158 2.6 4.3 0.00 0.01 0.00 89 1013.3
20260507093812 50 158 2.6 4.3 0.00 0.01 0.00 89 1013.3
20260507092312 50 158 2.6 4.3 0.00 0.01 0.00 89 1013.3
20260507090812 51 185 2.6 4.3 0.00 0.01 0.00 87 1013.0
20260507085312 50 208 2.6 4.3 0.00 0.01 0.00 85 1013.0
20260507083812 49 153 0.9 2.6 0.00 0.01 0.00 91 1012.0
20260507082312 47 164 1.7 2.6 0.00 0.01 0.00 91 1012.0
20260507080812 46 155 2.6 4.3 0.00 0.01 0.00 94 1012.0
20260507075312 45 221 0.0 2.6 0.00 0.01 0.00 95 1011.3
20260507073812 44 186 0.9 2.6 0.00 0.01 0.00 97 1010.9
20260507072313 43 164 0.0 0.0 0.00 0.01 0.00 99 1010.9
20260507070812 43 157 0.9 2.6 0.00 0.01 0.00 99 1010.9
20260507065312 42 353 0.0 2.6 0.00 0.01 0.00 99 1010.6
20260507063811 42 162 0.0 0.0 0.00 0.01 0.00 99 1010.3
20260507062312 42 166 0.9 2.6 0.00 0.01 0.00 99 1009.9
20260507060811 42 158 1.7 2.6 0.00 0.01 0.00 99 1009.9
20260507055312 42 1 0.0 0.0 0.00 0.01 0.00 99 1009.9
20260507053811 42 152 0.0 2.6 0.00 0.01 0.00 99 1009.6
20260507052312 42 150 0.0 2.6 0.00 0.01 0.00 99 1009.3
20260507050811 42 155 2.6 4.3 0.00 0.01 0.00 99 1009.3
20260507045312 42 162 0.0 2.6 0.00 0.01 0.00 99 1008.6
20260507043811 42 162 0.0 2.6 0.00 0.01 0.00 99 1008.6
20260507042312 42 162 0.0 2.6 0.00 0.01 0.00 99 1008.6
20260507040812 42 162 0.0 2.6 0.00 0.01 0.00 99 1008.6
20260507035312 42 171 0.0 0.0 0.00 0.01 0.00 99 1008.6
20260507033811 42 165 0.0 0.0 0.00 0.01 0.00 99 1008.6
20260507032312 42 162 0.0 0.0 0.00 0.01 0.00 99 1008.6
20260507030812 41 160 0.0 0.0 0.00 0.01 0.00 99 1008.2
20260507025312 41 159 0.0 2.6 0.00 0.01 0.00 99 1008.6
20260507023811 41 160 1.7 4.3 0.00 0.01 0.00 99 1008.2